Theta_e
335 336 338 339 339 339 339 339 338 336 335 334 335 333 332 332 331 330 330 330 329 327 327 327 327 327 328 329 329 329 329 328 328 327 326 325 324 323 322 321 319 318 317 316 314 313 312 311 308 305 303 305
331 334 336 337 337 337 338 337 337 335 336 334 334 333 333 332 331 329 329 328 328 327 327 327 326 326 327 328 328 328 328 327 326 326 325 324 323 322 321 320 318 317 315 314 313 312 311 309 307 304 303 304
332 328 332 334 335 335 336 336 336 335 334 333 332 332 331 329 327 326 327 327 327 327 327 328 327 327 327 328 328 327 326 325 325 324 324 323 322 320 319 318 317 316 314 313 311 310 308 305 303 302 302 302
330 328 326 329 332 332 333 333 333 332 330 328 328 328 327 324 324 322 324 321 325 325 327 327 325 327 328 328 327 325 325 324 324 323 323 322 321 319 318 317 315 313 312 311 310 308 305 302 300 301 300 302
326 328 324 326 326 327 329 330 330 330 325 322 321 322 320 318 323 323 323 323 325 319 325 319 320 325 327 326 325 324 323 323 322 322 321 321 320 318 317 314 313 312 311 309 307 304 301 299 299 299 299 300
323 326 326 329 331 330 329 326 324 327 329 320 326 317 319 319 317 317 317 318 317 320 321 320 318 323 325 324 323 322 322 321 320 319 318 317 315 312 308 303 301 303 305 305 303 300 298 298 298 298 298 298
322 324 326 326 327 327 323 325 325 326 323 322 319 317 315 314 314 313 314 315 315 316 314 319 317 322 323 323 322 321 320 320 319 318 317 314 311 308 303 299 299 298 299 299 298 297 297 297 297 297 297 298
320 322 323 324 324 324 325 324 322 321 318 316 314 312 311 311 310 311 311 311 310 312 317 318 316 319 320 320 319 319 319 318 317 316 313 310 307 301 299 299 298 298 297 298 297 297 296 296 296 297 297 297
319 320 320 321 321 322 321 320 318 317 315 313 311 309 308 308 308 308 309 311 312 312 312 314 314 313 312 312 311 307 307 306 304 302 302 300 299 299 299 298 297 298 297 297 297 296 296 296 296 296 296 296
320 317 319 318 318 319 318 317 315 313 312 310 308 306 305 305 306 306 307 308 307 307 308 308 307 306 305 305 304 302 300 298 298 297 298 298 298 297 297 297 297 298 297 296 296 295 296 295 295 296 295 295
318 319 320 318 316 317 315 314 313 311 310 308 306 305 304 304 304 305 305 304 304 304 304 304 302 301 301 302 299 298 298 297 297 297 297 297 296 296 296 296 296 295 295 296 296 295 295 295 295 295 295 295
317 318 317 316 314 316 314 312 312 310 308 306 304 303 302 303 303 303 302 303 302 301 300 300 299 298 298 298 297 296 297 296 296 295 296 296 296 295 296 295 295 295 294 294 295 295 295 295 294 294 294 295
317 316 317 316 313 314 312 311 311 310 306 304 303 302 302 302 302 302 302 301 301 298 298 296 296 296 296 296 295 296 295 296 295 295 295 295 295 295 295 295 295 294 294 294 294 294 294 294 294 294 294 295
315 314 314 314 315 313 310 310 310 307 304 304 302 300 300 301 301 301 300 300 297 297 296 295 295 295 295 295 295 295 295 295 295 295 294 294 295 294 294 294 294 294 294 294 294 293 293 293 293 294 294 294
314 313 313 314 315 312 310 309 307 305 304 302 301 300 300 300 300 300 300 298 296 296 295 294 294 294 294 294 294 294 295 294 294 294 294 294 294 294 294 294 294 293 293 293 293 293 293 293 293 293 294 294
313 312 313 312 312 309 310 308 306 304 303 301 300 300 299 299 299 299 298 298 296 296 294 293 293 293 293 294 294 294 294 294 293 294 293 293 293 293 294 293 292 292 292 292 292 292 292 293 293 293 294 294
312 311 311 311 310 309 308 306 305 303 302 301 299 298 299 298 298 298 297 297 296 296 294 293 293 292 293 293 293 293 294 294 293 293 293 293 293 292 292 292 292 292 291 292 291 292 292 293 293 293 294 294
311 311 310 310 310 309 307 305 304 303 302 301 298 298 298 298 297 297 296 296 295 295 293 293 293 293 292 293 293 293 293 293 293 293 293 292 292 292 292 292 292 291 292 291 291 292 292 292 292 293 293 293
310 310 310 309 308 307 306 304 303 303 302 300 299 297 297 297 297 297 296 296 295 293 293 292 292 292 292 292 293 293 293 293 292 293 292 292 292 292 291 292 292 292 292 291 291 291 292 292 291 292 292 293
310 309 309 308 306 306 305 303 303 302 301 300 298 297 297 297 297 296 295 295 295 293 292 292 291 291 291 292 292 292 292 292 292 292 292 292 291 290 291 291 291 292 291 291 291 291 291 291 291 291 292 292
309 308 307 306 305 304 303 302 302 301 300 299 298 297 297 296 296 296 295 295 295 294 292 291 291 290 291 292 292 292 291 291 292 291 292 290 290 291 291 292 291 291 291 291 290 290 290 291 291 292 292 292
307 307 306 304 303 302 300 301 301 300 298 298 297 297 297 296 296 296 295 295 294 294 293 292 291 290 290 291 291 291 291 291 291 291 291 290 290 289 291 291 291 290 290 290 290 289 289 290 291 291 292 292
306 305 303 301 300 299 299 299 299 298 297 297 296 296 297 297 296 296 295 294 294 294 292 291 290 289 290 291 291 291 290 290 290 291 290 290 289 289 290 291 291 290 290 289 289 289 288 290 290 290 290 290
303 301 299 297 295 296 296 297 296 296 296 296 296 296 296 296 296 296 294 294 294 294 292 291 289 289 290 290 290 290 290 289 290 290 289 289 290 290 289 289 290 290 289 289 289 288 288 289 290 289 289 290
301 298 298 297 295 295 296 295 296 295 295 295 295 296 296 296 296 296 295 294 293 293 292 291 290 289 289 290 290 290 290 290 290 290 290 289 290 290 289 288 288 289 290 289 286 288 288 288 290 290 289 289
300 300 299 297 296 296 296 295 294 294 294 295 295 296 296 296 296 296 295 294 293 293 292 291 289 289 289 289 290 290 291 290 290 289 289 289 288 289 289 289 288 288 290 289 288 286 286 287 288 290 289 288
299 300 300 299 298 297 296 296 296 296 296 295 295 295 295 295 295 295 294 294 293 293 292 291 290 289 289 289 290 289 288 289 289 288 288 289 289 287 289 289 288 288 289 291 289 290 288 285 285 287 288 288
299 299 299 298 296 297 296 294 295 295 294 294 294 293 294 294 295 294 294 293 293 293 292 291 290 290 289 289 289 289 288 288 288 288 288 288 289 290 287 288 287 289 286 287 290 288 289 286 287 286 286 287
298 297 296 294 294 294 293 293 293 293 292 293 293 293 292 293 294 294 294 293 293 293 292 292 291 290 289 289 289 289 288 288 288 288 288 289 288 289 290 287 289 287 287 287 286 290 284 285 285 289 288 286
297 296 295 293 292 291 292 291 291 290 291 291 291 292 293 293 293 293 293 293 293 293 292 292 291 291 289 288 288 288 288 288 288 288 287 288 289 289 290 290 288 287 288 287 288 287 288 293 296 289 286 286
296 296 295 294 294 294 293 293 293 294 295 293 293 293 292 292 292 293 293 293 293 293 292 292 291 291 290 289 288 288 288 287 288 288 288 288 288 289 289 289 288 288 287 286 286 287 287 287 285 290 287 286
Wind_Speed
12 12 13 12 13 14 13 13 11 13 13 13 13 13 12 12 11 12 12 12 12 12 11 11 11 12 12 13 13 13 13 13 13 13 13 13 13 13 13 13 12 12 12 12 12 12 12 11 11 10 6 4
10 9 11 12 12 12 11 11 11 13 12 13 13 11 11 10 10 12 13 13 13 12 12 12 12 12 13 13 13 13 13 13 13 13 13 12 12 12 12 12 12 12 12 12 12 12 11 11 11 10 7 5
9 9 9 11 11 10 9 11 12 12 12 11 11 10 10 10 10 10 11 12 12 12 12 10 11 12 13 13 14 14 13 13 13 13 13 12 12 12 12 12 12 12 12 12 12 12 11 11 10 9 5 5
7 7 9 10 11 11 10 10 11 12 11 10 9 10 10 10 10 9 8 11 10 11 12 11 9 10 12 14 14 14 14 14 14 14 13 13 13 13 13 13 13 12 12 12 12 12 11 10 7 5 4 5
7 7 8 8 10 10 10 9 10 10 11 10 9 9 10 10 7 6 5 7 6 9 8 8 8 10 12 13 13 13 13 13 13 14 14 14 14 14 14 13 13 13 12 12 12 11 10 8 5 5 5 4
5 6 7 7 7 8 8 9 8 9 8 7 6 9 8 6 5 4 4 5 5 5 7 7 8 10 12 13 12 13 13 13 13 13 14 14 14 14 13 11 5 6 10 12 11 10 8 5 4 4 4 4
6 6 6 6 6 6 7 7 9 6 8 6 7 7 6 5 4 5 4 4 5 5 6 7 8 9 10 12 11 12 12 12 13 13 14 14 14 13 12 6 4 4 3 5 9 7 5 4 4 4 4 4
5 6 6 5 5 5 5 6 6 7 7 6 7 7 5 5 5 5 4 5 7 6 4 5 7 9 10 10 10 11 9 11 12 13 13 13 12 8 4 4 4 4 4 4 3 4 4 4 4 4 4 3
6 6 5 5 5 6 5 5 5 5 6 6 7 7 5 5 5 5 4 4 4 3 3 4 3 4 4 4 5 6 5 4 4 4 4 5 4 3 4 4 4 3 4 4 4 4 4 4 4 4 3 3
8 7 7 6 6 6 5 6 5 5 5 6 7 6 6 6 6 5 5 4 4 4 4 4 3 3 3 4 4 3 4 3 3 3 3 4 4 3 3 4 4 4 4 4 4 4 4 3 3 3 3 3
7 8 8 6 6 7 6 5 6 6 6 6 7 7 7 7 6 5 5 5 5 5 4 4 4 4 3 4 4 3 4 4 3 3 3 3 4 3 4 5 4 4 4 4 5 4 4 3 3 3 3 3
9 8 8 10 7 8 7 7 7 6 6 6 6 7 6 6 6 7 6 5 5 5 4 4 4 3 3 3 3 3 3 4 3 3 3 4 4 4 3 5 4 4 4 4 3 5 4 3 3 3 3 3
9 8 9 8 8 9 8 7 7 7 6 7 6 6 7 7 7 6 6 7 6 5 5 4 4 4 3 3 4 4 3 3 5 4 3 3 4 3 4 4 4 4 4 3 3 3 4 3 3 3 3 3
9 9 9 10 11 8 8 8 7 8 7 6 7 7 7 8 7 8 8 7 5 6 6 5 5 4 4 4 4 4 5 3 3 5 4 4 4 4 4 4 3 3 4 3 3 3 3 3 3 2 3 2
10 9 10 11 10 8 9 8 8 7 7 6 7 7 8 8 8 8 7 7 8 6 6 6 5 5 4 4 4 4 4 3 4 3 4 4 4 4 4 4 3 3 4 3 3 3 3 3 3 3 2 2
11 12 11 9 8 9 8 8 8 7 7 8 7 7 9 8 8 8 7 8 8 7 7 6 6 5 5 5 4 3 4 4 3 4 4 4 3 3 3 4 3 2 3 3 3 3 3 3 3 3 3 3
10 8 9 10 10 8 8 8 8 8 9 8 8 8 9 8 9 8 8 8 9 8 7 7 7 6 5 5 4 4 5 5 4 4 4 4 3 3 3 3 3 2 2 3 3 2 3 3 3 3 3 3
10 11 10 8 8 8 8 8 9 9 8 8 8 8 9 9 9 8 7 8 8 7 7 7 7 7 6 5 5 4 5 5 4 4 4 4 4 3 3 4 4 4 3 3 2 2 2 2 3 2 3 3
13 11 9 9 9 9 9 9 9 8 8 8 8 8 9 9 9 9 8 8 8 8 7 7 7 7 6 6 5 5 4 5 4 4 5 5 5 3 2 2 3 2 3 4 3 3 2 3 3 2 3 3
11 10 9 8 9 8 9 9 9 9 9 9 8 8 8 9 9 8 9 9 8 8 8 8 7 7 6 7 6 5 5 5 6 5 5 4 4 6 4 4 3 1 3 3 4 3 3 3 3 3 3 4
10 9 9 10 8 8 8 9 9 8 7 8 8 8 9 9 9 9 10 10 9 8 9 7 7 6 7 7 7 6 5 5 5 6 5 4 4 2 4 4 5 3 3 4 4 3 4 3 3 4 4 3
10 8 7 7 7 8 9 9 7 7 7 8 8 8 9 10 10 10 10 10 9 8 8 7 7 7 8 8 7 7 6 5 5 5 5 6 3 3 3 4 5 5 4 4 4 4 4 4 3 3 3 4
8 7 6 5 7 7 8 7 6 6 7 8 8 9 9 10 10 9 10 10 10 9 8 8 7 8 9 8 7 7 7 6 6 6 5 6 5 2 2 2 3 5 6 5 5 5 4 4 4 4 3 3
7 7 8 9 6 7 9 7 8 8 8 7 9 9 10 10 10 10 10 10 10 10 9 9 8 9 9 8 8 8 8 8 8 10 9 7 7 6 2 1 3 5 7 7 7 6 5 4 4 5 3 3
10 11 8 7 11 12 9 9 8 8 9 9 9 10 10 11 9 10 10 10 10 10 9 8 8 8 8 8 9 9 10 9 9 8 7 6 4 6 5 3 3 3 5 9 6 5 5 4 3 3 3 3
10 10 11 11 10 8 8 9 11 11 10 10 9 9 10 9 9 10 11 10 10 9 10 10 9 9 10 9 9 8 7 8 8 8 7 7 5 1 4 4 6 6 5 2 5 6 4 3 1 1 2 2
11 8 10 9 6 9 6 6 6 5 7 6 8 8 8 8 9 10 9 10 10 10 10 10 10 10 9 10 9 9 9 9 10 9 10 10 8 6 1 2 2 6 3 4 3 3 5 3 3 2 2 1
12 11 9 8 5 8 8 6 7 8 7 9 7 9 9 8 9 9 10 10 10 8 9 11 11 9 9 10 10 10 10 10 10 9 8 8 7 7 7 4 5 3 4 3 8 5 1 3 2 2 7 6
9 8 7 6 5 5 5 3 7 7 8 9 9 7 10 9 8 9 9 10 11 10 11 10 10 10 10 10 9 8 9 10 11 11 10 11 9 11 8 8 3 4 4 6 3 3 6 3 2 3 2 4
9 9 9 10 9 9 9 8 9 14 14 9 11 11 5 6 10 9 10 10 11 10 9 10 9 9 9 9 8 8 8 8 8 10 11 11 9 10 7 9 7 6 3 1 2 3 2 1 2 5 2 3
10 10 9 12 12 10 10 10 9 6 5 9 7 6 11 9 9 11 11 9 9 9 9 9 9 9 9 9 8 8 8 9 11 10 10 8 9 9 6 6 9 10 7 3 2 1 0 2 1 2 7 4
Wind_Direction
207 206 203 199 201 208 204 200 192 196 202 193 193 196 190 185 180 182 184 182 181 177 174 170 164 160 154 150 146 143 139 137 133 129 125 121 118 116 113 110 106 103 99 95 91 86 80 74 70 63 55 63
204 203 199 196 200 204 199 186 184 194 193 192 195 186 184 172 176 182 184 181 177 175 173 169 166 162 158 153 150 145 141 137 132 128 124 121 119 115 111 108 105 102 98 94 89 84 78 74 69 64 55 57
202 203 204 196 198 198 187 180 183 186 189 187 188 177 172 168 169 179 179 177 175 174 170 162 161 164 159 155 149 143 139 136 133 130 126 122 117 112 108 104 99 95 90 88 83 78 73 69 68 63 56 53
197 203 204 198 192 192 186 182 182 182 175 177 176 172 164 159 164 172 171 173 173 172 164 160 164 163 157 153 147 144 142 139 136 133 130 125 121 117 112 105 98 93 88 82 76 71 66 61 56 54 53 50
197 198 197 198 188 185 184 179 177 175 165 164 168 164 157 152 151 150 155 160 158 158 156 156 166 158 157 151 149 146 144 141 139 137 133 129 122 115 106 99 94 94 91 84 78 73 67 56 52 48 46 39
193 192 192 186 186 180 178 179 171 166 155 160 149 148 146 142 142 143 143 143 143 138 154 161 162 157 157 152 148 147 144 142 139 135 132 127 120 112 104 96 88 83 82 81 82 80 76 67 64 53 48 44
186 191 177 178 177 171 175 173 164 151 152 140 143 142 139 145 141 141 142 144 142 142 155 155 156 156 153 149 143 144 142 141 137 132 128 121 115 109 106 102 100 97 97 91 86 86 75 77 69 69 60 60
181 183 176 171 170 169 165 164 152 147 146 149 148 146 147 144 141 141 142 140 140 144 150 145 143 140 137 135 135 136 136 135 131 124 116 111 107 101 97 103 103 104 102 95 93 84 82 80 76 67 62 62
188 174 175 174 174 172 168 158 153 152 152 155 153 152 149 143 141 143 145 144 142 147 138 121 104 97 93 90 88 85 82 77 68 75 98 99 93 96 105 101 97 103 96 87 79 71 67 74 69 69 62 59
187 175 185 180 178 171 169 163 159 159 163 160 161 156 148 145 143 151 148 148 147 147 148 132 126 112 113 117 110 97 110 105 109 118 116 110 104 96 92 85 85 77 86 95 83 78 69 68 67 65 57 54
186 193 194 182 177 175 178 168 166 173 170 167 159 160 157 153 158 156 156 155 158 156 160 146 142 138 136 134 129 132 130 129 130 127 116 106 97 94 92 87 84 84 81 85 95 90 83 75 77 74 66 59
191 191 189 190 178 194 165 168 180 176 174 156 169 168 167 161 159 159 161 164 164 161 161 155 143 140 142 136 137 139 138 135 132 121 108 109 104 104 96 101 94 96 92 91 91 99 90 84 79 72 71 70
194 190 191 188 187 193 174 186 182 173 162 173 169 170 169 166 161 167 166 167 168 156 164 150 154 157 153 149 146 151 147 148 137 129 130 125 122 116 114 111 104 101 94 93 87 93 94 85 76 72 71 67
193 190 188 192 195 186 177 188 175 164 179 174 170 175 179 176 169 171 169 164 162 167 162 159 154 158 160 161 156 160 154 158 142 139 135 126 122 123 122 113 113 113 102 89 89 84 96 87 86 82 82 75
197 185 197 193 195 180 188 175 171 179 176 174 182 178 173 176 176 169 170 166 165 172 162 163 162 163 157 160 167 165 142 140 139 133 131 136 137 137 132 121 120 116 110 106 103 106 108 109 112 105 102 101
194 195 197 188 186 188 184 169 179 178 178 182 181 175 179 181 177 173 171 167 167 170 165 166 166 158 166 165 158 157 144 136 131 120 110 102 97 105 114 119 121 115 121 123 123 133 122 128 121 119 121 114
192 185 189 188 192 184 176 181 177 182 183 180 180 177 181 182 177 179 174 174 170 168 170 162 160 163 169 161 155 145 139 125 120 113 112 103 108 109 110 122 124 126 131 124 128 133 126 131 118 121 121 112
192 193 191 191 185 180 177 184 184 187 183 179 177 179 180 181 183 180 178 168 168 167 166 167 169 162 162 159 153 140 144 134 131 124 125 128 134 141 153 153 149 152 140 118 121 114 120 110 109 118 107 99
198 192 188 186 184 185 183 183 189 186 181 182 181 177 181 182 183 182 173 173 166 169 169 168 167 169 162 151 151 147 147 133 128 131 143 150 149 149 162 162 157 169 133 132 116 106 119 108 108 100 100 94
196 191 189 186 190 186 184 186 191 186 185 183 177 182 179 181 180 175 176 173 171 167 176 174 170 166 150 155 149 144 139 138 145 148 146 162 161 156 173 168 146 158 126 118 104 100 98 102 104 105 101 93
197 190 189 188 187 186 183 195 194 187 179 179 182 183 182 177 179 179 178 177 174 169 171 176 168 157 156 153 152 148 145 150 150 152 153 164 196 228 166 174 144 136 128 109 98 98 95 90 107 103 103 98
191 191 183 183 183 185 192 198 195 187 179 188 184 181 186 176 182 181 179 175 173 174 172 170 164 153 157 156 151 146 153 155 149 154 163 165 191 195 191 172 158 143 124 107 100 90 85 91 89 93 99 106
187 181 179 164 171 189 196 198 195 183 190 191 184 190 182 179 186 178 175 175 173 172 169 166 164 162 161 156 152 149 154 155 162 162 171 174 166 186 244 194 152 138 121 99 84 77 68 70 71 82 88 101
178 175 182 176 164 195 203 189 189 193 197 185 193 189 187 185 186 176 177 177 175 173 168 168 167 162 160 161 156 157 161 170 175 173 170 182 166 158 136 74 115 132 116 89 80 78 71 58 67 68 66 80
180 182 176 186 198 201 175 187 185 193 197 196 198 190 191 187 185 177 176 179 175 176 171 167 156 158 167 166 168 169 180 169 167 170 168 148 160 157 151 145 159 172 142 120 87 75 73 74 48 55 34 57
189 193 192 186 193 180 177 181 189 196 192 198 197 195 195 189 183 181 182 177 178 172 167 163 166 169 171 170 175 172 151 159 164 160 160 157 149 254 178 159 179 187 164 127 152 149 136 87 113 62 18 34
196 188 195 195 185 186 184 203 208 203 198 188 196 193 193 191 189 184 182 175 178 176 175 170 167 176 168 175 165 162 168 166 171 172 168 175 169 156 170 132 169 201 258 128 113 109 122 156 161 190 224 206
196 190 187 190 154 178 183 182 176 193 187 191 183 197 190 195 189 184 184 176 176 178 179 176 178 170 173 177 177 172 163 171 172 166 172 179 190 170 152 186 180 216 195 189 152 163 244 139 191 169 213 186
172 152 137 129 92 113 115 97 165 181 210 192 189 187 194 194 178 183 180 177 186 185 182 181 179 176 176 174 176 171 170 173 178 176 178 179 177 192 170 159 169 185 174 224 297 139 132 113 219 227 93 129
167 175 167 157 160 173 182 188 183 198 199 167 188 197 131 158 188 179 187 188 188 190 181 181 180 173 170 174 174 180 175 166 160 182 184 191 184 187 217 164 149 164 190 242 201 265 343 313 174 158 171 171
175 179 183 189 192 192 193 201 215 209 182 190 190 170 184 182 174 187 186 184 186 188 185 177 175 175 176 174 174 173 169 177 185 181 187 170 191 199 165 157 170 177 167 137 216 188 199 86 4 108 139 193